Location: Haliburton Scout Reserve
(45.0900°N, 78.3200°W)
Time: 23:30:43
(UTC-05:00)

IDEFIX/ARIANE 42P - Visible Passes

Search period start: 21 February 2017 00:00
Search period end: 03 March 2017 00:00
Orbit: 786 x 802 km, 98.2° (Epoch: 21 February)

Date Brightness Start Highest point End Pass type
(mag) Time Alt. Az. Time Alt. Az. Time Alt. Az.
21 Feb 3.6 06:03:30 10° NNE 06:08:37 51° E 06:13:40 10° S visible
21 Feb 6.1 19:07:13 10° WSW 19:09:26 13° W 19:11:38 10° WNW visible
22 Feb 4.7 05:35:35 10° NE 05:40:07 29° E 05:44:37 10° SSE visible
22 Feb 5.4 18:36:40 10° SW 18:40:45 23° W 18:44:51 10° NW visible
23 Feb 5.6 05:08:12 10° NE 05:11:31 17° E 05:14:47 10° SE visible
24 Feb 3.0 06:18:04 10° NNE 06:23:19 70° ESE 06:28:30 10° S visible
25 Feb 4.1 05:49:58 10° NNE 05:54:53 39° E 05:59:44 10° SSE visible
25 Feb 5.8 18:52:17 10° SW 18:55:35 17° W 18:58:54 10° NW visible
26 Feb 5.2 05:22:16 10° NE 05:26:20 23° E 05:30:22 10° SE visible
26 Feb 5.0 18:22:26 10° SSW 18:26:58 29° W 18:31:32 10° NW visible
27 Feb 5.8 04:55:28 10° ENE 04:57:39 13° E 04:59:51 10° ESE visible
28 Feb 3.5 06:04:28 10° NNE 06:09:37 54° E 06:14:40 10° S visible
28 Feb 6.2 19:08:32 10° WSW 19:10:27 12° W 19:12:23 10° WNW visible
01 Mar 4.7 05:36:31 10° NNE 05:41:07 30° E 05:45:40 10° SSE visible
01 Mar 5.6 18:37:47 10° SW 18:41:47 22° W 18:45:46 10° NW visible
02 Mar 5.6 05:09:05 10° NE 05:12:31 17° E 05:15:54 10° SE visible
